sat.trackr.live / text

‹ back to catalog

STARLINK-2427

NORAD 47837 · 2021-018BC

PAYLOAD ACTIVE UNKNOWN

§ Identity

Operator
Country
US
Launch date
2021-03-11
Launch site
AFETR
Launch vehicle
Mass (kg)
RCS (m²)

Purposes: comms

External: N2YO · Heavens-Above · Gunter

§ Orbital elements

Epoch: 2026-09-20T01:06:24.001632Z

Period
93.92 min
Inclination
53.1577°
Eccentricity
0.0000890
Mean motion
15.33261443 rev/d
Perigee alt
465.5 km
Apogee alt
466.7 km
Semi-major
6,844.2 km
B*
1.1249e-3
RAAN
54.3874°
Arg perigee
345.4549°
Mean anomaly
14.6428°
Rev number
30,655

§ Raw data

STARLINK-24271 47837U 21018BC  26263.04611113  .00036469  00000+0  11249-2 0  99932 47837  53.1577  54.3874 0000890 345.4549  14.6428 15.33261443306557

JSON: /api/v1/satellites/47837 · /tle

For live sub-satellite position, see the globe view (requires WebGL).

§ Visibility from observer

Set your observer location to see the next 7 days of passes ≥ 10°. The values pass through the URL so the page stays shareable.

No JS? Fill the form by hand. The geolocation button needs JavaScript.